Back to catalog

COSMOS 2251 DEB

AliveLEO
NORAD 33973·DEBRIS·🇷🇺 Russia

Launched Jun 16, 1993 from Plesetsk Cosmodrome

Loading…

Next Passes (next 24 hours)

TLE

FreshSource: Space-Track

Epoch: Sep 14, 2026, 10:35 UTC

1 33973U 93036FG  26257.44147392  .00000204  00000-0  64611-4 0  9990
2 33973  74.0083 308.0167 0044929  59.3515 313.6552 14.45611539925842

Track COSMOS 2251 DEB in real time with AllMySat

Download on the App Store